Location: Hontanares de Eresma
(40.9827°N, 4.2044°W)
Time: 12:47:45
(UTC+00:00)

Daily predictions for brighter satellites

Satellite Brightness Start Highest point End
(mag) Time Altitude Azimuth Time Altitude Azimuth Time Altitude Azimuth
Okean O Rocket 1.6 17:49:37 10° SSE 17:54:01 77° ENE 17:58:27 10° N
Meteor 2-1 Rocket 4.2 17:49:52 10° N 17:55:24 76° E 18:00:53 10° SSE
CZ-4 R/B 2.8 17:55:44 10° ESE 17:58:31 18° ENE 18:01:16 10° NNE
Iridium 4 Rocket 4.2 17:57:17 10° NNE 18:01:56 31° E 18:06:13 10° SE
ERS-2 3.4 18:01:05 10° NE 18:03:55 21° E 18:06:45 10° SSE
SKYMED 2 3.9 17:59:51 10° NNE 18:04:03 45° E 18:08:12 10° S
Okean-O 3.8 18:02:40 10° ESE 18:06:02 22° ENE 18:09:25 10° NNE
Cosmos 1340 2.6 18:05:32 10° S 18:09:13 64° E 18:12:56 10° NNE
Cosmos 2278 Rocket 2.6 18:04:19 10° S 18:09:41 45° ESE 18:15:04 10° NE
Cosmos 1346 Rocket 3.9 18:06:38 10° SE 18:09:51 24° E 18:13:04 10° NE
CZ-2C R/B 3.4 18:09:05 10° SE 18:14:20 51° ENE 18:19:51 10° N
CZ-4B R/B 4.0 18:11:17 10° S 18:16:47 60° WSW 18:22:23 10° NNW
SMAP 4.5 18:13:31 10° S 18:17:56 43° W 18:22:22 10° NNW
Cosmos 44 Rocket 4.4 18:15:52 10° SSE 18:19:52 26° ESE 18:23:19 13° ENE
Cosmos 405 3.2 18:20:15 10° N 18:23:40 45° ENE 18:27:02 10° SSE
Cosmos 1455 3.6 18:20:36 10° NNW 18:24:15 43° W 18:27:54 10° SSW
Cosmos 1627 Rocket 4.5 18:18:56 10° S 18:25:05 71° E 18:31:22 10° NNE
Cosmos 1626 Rocket 4.3 18:21:31 10° SSW 18:25:49 56° W 18:30:13 10° N
ARGOS 4.0 18:23:38 10° ESE 18:28:06 28° ENE 18:32:35 10° N
Cosmos 1898 Rocket 4.3 18:27:36 10° SW 18:32:44 54° WNW 18:37:52 10° N
Cosmos 372 Rocket 4.1 18:28:21 10° S 18:33:25 57° ESE 18:38:33 10° NNE
Cosmos 1092 Rocket 4.1 18:27:48 10° S 18:33:59 80° W 18:40:10 10° N
PSLV R/B 4.2 18:31:14 10° NNE 18:35:21 49° E 18:39:24 10° S
Cosmos 1328 4.2 18:32:32 10° SSW 18:36:30 66° W 18:40:28 10° N
SAR-Lupe-1 4.4 18:34:33 10° NNE 18:38:00 44° E 18:41:26 10° S
CZ-2D R/B 3.2 18:34:57 10° SSE 18:38:47 86° WSW 18:42:37 10° NNW
CZ-4B R/B 2.1 18:35:42 10° N 18:38:53 51° WNW 18:41:59 10° SSW
CZ-2C R/B 3.6 18:35:43 10° NE 18:40:25 27° E 18:45:06 10° SSE
MOS 1 Rocket 3.3 18:42:33 10° N 18:46:50 74° WNW 18:51:12 10° SSW
Cosmos-2242 2.9 18:44:09 10° N 18:48:27 67° E 18:52:44 10° SSE
Meteor 1-11 4.2 18:43:44 10° S 18:49:25 88° E 18:55:05 10° N
COSMO-SKYMED 1 3.4 18:47:52 10° N 18:52:06 51° WNW 18:56:17 10° SSW
Meteor 2-15 4.4 18:46:12 10° N 18:52:23 76° E 18:58:31 10° SSE
Cosmos 1758 Rocket 3.8 18:48:05 10° SSW 18:52:31 75° W 18:57:02 10° N
Cosmos 2098 Rocket 4.5 18:48:52 10° S 18:56:15 84° W 19:03:32 10° N
USA 290 2.0 18:53:20 10° NNW 18:56:31 88° ENE 18:59:42 10° SSE
USA 276 3.3 18:56:18 10° SSW 18:58:53 27° SE 18:58:53 27° SE
SL-08 RB Rocket 4.3 18:59:18 32° E 18:59:41 33° ENE 19:03:42 10° N
CSL-04 Debris 4.2 18:56:34 10° SE 19:01:46 53° ENE 19:07:00 10° N
Helios 1A Rocket 2.8 19:00:33 10° SSE 19:04:38 64° ENE 19:08:45 10° N
H-2A R/B 1.9 19:01:17 10° SSE 19:06:18 84° ENE 19:11:31 10° NNW
Cosmos 1125 Rocket 3.8 19:02:31 10° S 19:07:22 41° ESE 19:08:41 35° ENE
Cosmos 1833 Rocket 2.8 19:04:16 10° NNW 19:09:54 78° WSW 19:15:29 10° SSE
Cosmos 2298 Rocket 3.9 19:04:41 10° S 19:09:56 66° ESE 19:13:35 20° NNE
Cosmos 2266 Rocket 4.1 19:06:15 10° SSE 19:12:12 49° E 19:18:05 10° NNE
YAOGAN 1 2.7 19:10:18 10° S 19:14:36 73° WSW 19:18:56 10° NNW
Cosmos 1689 Rocket 3.0 19:13:25 26° NNW 19:14:37 44° WNW 19:17:20 10° SSW
SJ-11-01 4.3 19:13:11 10° S 19:17:52 82° WSW 19:22:35 10° NNW
In-Cosmos 22 Rocket 4.1 19:16:06 10° S 19:21:51 70° E 19:27:31 10° NNE
USA 229 DEB 4.5 19:17:04 10° NW 19:24:19 59° WSW 19:31:53 10° SSE
USA 229 4.5 19:17:10 10° NW 19:24:26 60° WSW 19:32:01 10° SSE
X-37B 1.3 19:21:23 10° WNW 19:23:54 53° WNW 19:23:54 53° WNW
Cosmos 1943 Rocket 3.6 19:21:03 10° SSE 19:23:18 21° SE 19:23:18 21° SE
Cosmos 1417 Rocket 4.5 19:19:41 10° N 19:25:57 86° W 19:32:16 10° S
ISS -1.2 19:25:54 10° NNW 19:26:49 13° NNW 19:26:49 13° NNW
Cosmos 1553 Rocket 4.3 19:22:45 10° NNW 19:29:07 71° W 19:35:21 10° S
Cosmos 1241 Rocket 4.5 19:23:04 10° SSW 19:29:31 88° ESE 19:33:16 28° NNE
COSMOS 2406 4.2 19:24:01 10° NW 19:29:31 47° WSW 19:34:58 10° S
Cosmos 2082 Rocket 2.1 19:24:11 10° NNW 19:29:56 83° ENE 19:33:41 22° SSE
CZ-4 R/B 3.0 19:29:36 10° SSW 19:33:18 34° W 19:36:57 10° NNW
ERS-2 4.5 19:34:27 10° NNW 19:37:22 23° WNW 19:40:16 10° WSW
Meteor 2-21 4.3 19:31:43 10° S 19:37:44 75° E 19:43:52 10° NNE
Okean-O 4.2 19:38:13 10° SSW 19:42:16 35° W 19:46:22 10° NNW
CSL-04 Rocket 3.8 19:37:29 10° S 19:42:54 73° WSW 19:48:26 10° NNW
Meteor 2-14 Rocket 4.3 19:39:42 10° S 19:45:45 83° E 19:51:52 10° N
Cosmos 2315 Rocket 4.2 19:41:42 10° N 19:46:33 49° NE 19:46:33 49° NE
Cosmos 883 Rocket 4.3 19:42:29 10° N 19:48:40 72° E 19:50:11 52° SSE
Cosmos 1892 4.3 19:50:09 10° SSW 19:52:26 31° SW 19:52:26 31° SW
Cosmos 2278 Rocket 4.0 19:49:10 10° WSW 19:53:57 27° NW 19:58:45 10° N
Cosmos 1655 Rocket 4.4 19:49:16 10° SSW 19:55:26 63° W 20:01:36 10° N
S3M 4.3 19:49:34 10° NNW 19:55:36 63° W 20:01:38 10° S
Meteor 2-21 Rocket 4.3 19:54:46 10° S 20:00:50 86° E 20:01:14 79° NNE
Cosmos 44 Rocket 4.4 19:56:31 10° WSW 20:01:09 41° NW 20:02:05 37° NNW
ARGOS 4.4 20:03:11 10° SSW 20:08:09 38° W 20:13:11 10° NNW
CZ-2C R/B 3.8 20:15:33 10° N 20:20:47 42° WNW 20:26:01 10° SW
ATLAS 5 CENTAUR R/B 4.1 20:13:48 10° SSW 20:39:15 74° SE 20:39:15 74° SE
